Regional Weather Roundup
Issued by NWS Glasgow, MT

Home | Current Version | Previous Version | Text Only | Print | Product List | Glossary On
Versions: 1 2 3 4 5 6 7 8 9 10 11 12 13 14 15 16 17 18 19 20 21 22 23 24 25 26 27 28 29 30 31 32 33 34 35 36 37 38 39 40 41 42 43 44 45 46 47 48 49 50
000
ASUS45 KGGW 030915
RWRGGW
HOURLY WEATHER ROUNDUP FOR NORTHEAST MONTANA
NATIONAL WEATHER SERVICE GLASGOW MONTANA
300 AM MDT SUN MAY 03 2015

NOTE: "FAIR" INDICATES FEW OR NO CLOUDS BELOW 12,000 FEET WITH NO
SIGNIFICANT WEATHER AND/OR OBSTRUCTIONS TO VISISBILITY.

NORTHEAST MONTANA


CITY           SKY/WX    TMP DP  RH WIND       PRES   REMARKS
GLASGOW        MOCLDY    41  33  73 NW7       29.95R
WOLF POINT     PTCLDY    40  33  76 NW6       29.94R
JORDAN           N/A     47  33  58 N5        29.96R
WINNETT          N/A     45  33  63 NW6G16      N/A
SIDNEY         CLOUDY    46  34  61 NW6       29.93R
GLENDIVE       CLOUDY    48  34  57 N10       29.93R
MALTA            N/A     45  25  45 NW6         N/A
OPHEIM           N/A     36  27  69 W6        29.82R

FORT PECK REPORTS


CITY           SKY/WX    TMP DP  RH WIND       PRES   REMARKS
FORT PECK        N/A     43  35  73 NW6         N/A
THE PINES        N/A     46  32  58 NW5         N/A

SOUTHEAST MONTANA


CITY           SKY/WX    TMP DP  RH WIND       PRES   REMARKS
BILLINGS       CLOUDY    50  32  50 NE13      29.97R
MILES CITY     CLOUDY    52  32  46 N13       29.93R
BAKER          CLOUDY    52  35  52 NE14      29.90R
LIVINGSTON     PTCLDY    47  33  58 E18       29.96R

CENTRAL MONTANA


CITY           SKY/WX    TMP DP  RH WIND       PRES   REMARKS
HAVRE          CLOUDY    44  27  51 NW6       30.00S
LEWISTOWN      MOCLDY    44  31  60 CALM      30.00R
GREAT FALLS    CLOUDY    40  26  57 NE8       30.00F
CUT BANK       MOCLDY    39  30  70 CALM      30.01S
HELENA         CLEAR     43  29  57 W12       29.98S
BUTTE          CLEAR     32  19  58 SE9       29.97R
BOZEMAN        PTCLDY    48  29  47 W8        29.94R

WESTERN MONTANA


CITY           SKY/WX    TMP DP  RH WIND       PRES   REMARKS
MISSOULA       CLEAR     39  22  50 CALM      29.96R
KALISPELL      NOT AVBL

NORTH DAKOTA


CITY           SKY/WX    TMP DP  RH WIND       PRES   REMARKS
WILLISTON      CLOUDY    48  35  60 CALM      29.91R
DICKINSON      CLOUDY    51  36  56 N6        29.87R
MINOT          CLOUDY    49  36  61 W12       29.83R
BISMARCK       CLOUDY    57  37  47 N7        29.82R

SOUTHERN SASKATCHEWAN


CITY           SKY/WX    TMP DP  RH WIND       PRES   REMARKS
REGINA         CLEAR     36  30  80 W12       29.89R
ESTEVAN        PTCLDY    36  34  93 W8        29.89R
SWIFT CURRENT  CLEAR     32  27  80 W10       29.95R



USA.gov is the U.S. government's official web portal to all federal, state and local government web resources and services.